Location: Unspecified
(29.9680°N, 0.0000°E)
Time: 17:05:21
(UTC+00:00)

deb Explorer IX - Visible Passes

Search period start: 16 June 2019 00:00
Search period end: 26 June 2019 00:00
Orbit: 537 x 1115 km, 38.8° (Epoch: 14 June)

Date Brightness Start Highest point End Pass type
(mag) Time Alt. Az. Time Alt. Az. Time Alt. Az.
16 Jun ? 20:54:43 10° WNW 21:01:05 78° NNE 21:03:00 43° ESE visible
16 Jun ? 22:43:10 10° W 22:44:22 15° W 22:44:22 15° W visible
17 Jun ? 20:32:44 10° WNW 20:39:17 80° NNE 20:42:12 30° ESE visible
17 Jun ? 22:21:14 10° W 22:23:34 19° WSW 22:23:34 19° WSW visible
18 Jun ? 20:10:44 10° WNW 20:17:27 82° NNE 20:21:26 21° ESE visible
18 Jun ? 21:59:17 10° W 22:02:48 23° WSW 22:02:48 23° WSW visible
19 Jun ? 19:48:44 10° WNW 19:55:37 84° NNE 20:00:41 14° ESE visible
19 Jun ? 21:37:20 10° W 21:42:04 26° SW 21:42:04 26° SW visible
20 Jun ? 19:26:44 10° WNW 19:33:45 85° NNE 19:39:46 10° ESE visible
20 Jun ? 21:15:21 10° W 21:20:31 26° SW 21:21:23 25° SSW visible
21 Jun ? 20:53:22 10° W 20:58:41 26° SW 21:00:44 22° SSW visible
22 Jun ? 20:31:23 10° W 20:36:48 26° SW 20:40:08 17° S visible
23 Jun ? 20:09:24 10° W 20:14:56 26° SW 20:19:35 11° S visible
24 Jun ? 19:47:25 10° W 19:53:02 26° SW 19:58:07 10° SSE visible
25 Jun ? 19:25:26 10° W 19:31:07 26° SW 19:36:19 10° SSE visible
